sat.trackr.live / text

‹ back to catalog

STARLINK-32191

NORAD 60314 · 2024-133P

PAYLOAD ACTIVE UNKNOWN

§ Identity

Operator
Country
US
Launch date
2024-07-28
Launch site
AFWTR
Launch vehicle
Mass (kg)
RCS (m²)

Purposes: comms

External: N2YO · Heavens-Above · Gunter

§ Orbital elements

Epoch: 2026-05-24T22:04:57.523872Z

Period
94.11 min
Inclination
53.1608°
Eccentricity
0.0000847
Mean motion
15.30192543 rev/d
Perigee alt
474.7 km
Apogee alt
475.8 km
Semi-major
6,853.4 km
B*
-1.7247e-5
RAAN
302.8253°
Arg perigee
91.4090°
Mean anomaly
268.7008°
Rev number
10,331

§ Raw data

STARLINK-321911 60314U 24133P   26144.92011023 -.00000869  00000+0 -17247-4 0  99912 60314  53.1608 302.8253 0000847  91.4090 268.7008 15.30192543103316

JSON: /api/v1/satellites/60314 · /tle

For live sub-satellite position, see the globe view (requires WebGL).

§ Visibility from observer

Set your observer location to see the next 7 days of passes ≥ 10°. The values pass through the URL so the page stays shareable.

No JS? Fill the form by hand. The geolocation button needs JavaScript.